NOTE: This page is experimental. Bug reports to carter.barry@gmail.com. Query language is SQLite3.

Prepend rss. to the URL for an RSS feed, csv. to the URL for CSV output.

QUERY: SELECT station_id AS "Code", observation_time AS "Time (GMT)", ROUND(altim_in_hg,2) AS "Pressure (inches)", ROUND(temp_c*1.8+32, 1) AS "Temp. (F)", ROUND(wind_speed_kt*1.15077945) AS "Wind (mph)", (CASE WHEN wind_gust_kt THEN ROUND(wind_gust_kt*1.15077945) ELSE "NA" END) AS "Gust (mph)", DATETIME(observation_time,'-7 hours') AS "Time (MST)" FROM metar WHERE station_id='KABQ' ORDER BY observation_time DESC

To edit query (or if query above is munged), see textbox at bottom of page

Empty result may indicate error: I'm not sure why my error checking code isn't working.

Source code

Code Time (GMT) Pressure (inches) Temp. (F) Wind (mph) Gust (mph) Time (MST)
KABQ 2017-03-30T13:52:00Z 30.03 41.0 0.0 NA 2017-03-30 06:52:00
KABQ 2017-03-30T12:52:00Z 30.02 39.0 3.0 NA 2017-03-30 05:52:00
KABQ 2017-03-30T11:52:00Z 30.02 37.9 6.0 NA 2017-03-30 04:52:00
KABQ 2017-03-30T10:52:00Z 30.03 39.9 6.0 NA 2017-03-30 03:52:00
KABQ 2017-03-30T09:52:00Z 30.03 41.0 6.0 NA 2017-03-30 02:52:00
KABQ 2017-03-30T08:52:00Z 30.05 43.0 7.0 NA 2017-03-30 01:52:00
KABQ 2017-03-30T07:52:00Z 30.06 45.0 5.0 NA 2017-03-30 00:52:00
KABQ 2017-03-30T06:52:00Z 30.07 46.0 6.0 NA 2017-03-29 23:52:00
KABQ 2017-03-30T05:52:00Z 30.06 48.9 12.0 NA 2017-03-29 22:52:00
KABQ 2017-03-30T04:52:00Z 30.07 48.9 6.0 NA 2017-03-29 21:52:00
KABQ 2017-03-30T03:52:00Z 30.05 50.0 15.0 NA 2017-03-29 20:52:00
KABQ 2017-03-30T02:52:00Z 30.02 55.0 5.0 NA 2017-03-29 19:52:00
KABQ 2017-03-30T01:52:00Z 30.01 55.9 7.0 NA 2017-03-29 18:52:00
KABQ 2017-03-30T00:52:00Z 30.0 61.0 3.0 NA 2017-03-29 17:52:00
KABQ 2017-03-29T23:52:00Z 29.99 61.0 9.0 NA 2017-03-29 16:52:00
KABQ 2017-03-29T22:52:00Z 29.97 60.1 9.0 NA 2017-03-29 15:52:00
KABQ 2017-03-29T21:52:00Z 29.97 61.0 8.0 NA 2017-03-29 14:52:00
KABQ 2017-03-29T20:52:00Z 29.97 59.0 10.0 NA 2017-03-29 13:52:00
KABQ 2017-03-29T19:52:00Z 29.98 59.0 8.0 NA 2017-03-29 12:52:00
KABQ 2017-03-29T18:52:00Z 29.99 57.0 6.0 NA 2017-03-29 11:52:00
KABQ 2017-03-29T17:52:00Z 30.01 55.0 6.0 NA 2017-03-29 10:52:00
KABQ 2017-03-29T16:52:00Z 30.02 52.0 9.0 NA 2017-03-29 09:52:00
KABQ 2017-03-29T15:52:00Z 30.01 48.0 14.0 NA 2017-03-29 08:52:00
KABQ 2017-03-29T14:52:00Z 29.99 46.0 15.0 NA 2017-03-29 07:52:00
KABQ 2017-03-29T14:35:00Z 29.98 46.0 14.0 NA 2017-03-29 07:35:00

Enter query below (must start w/ SELECT):

Schema Raw SQLite3 db RSS feed for this query